[Iaude] MPEC E29: 2024 EO [a=2.37,e=0.70,i=5.7,H=26.1]
    mpec at cfa.harvard.edu 
    mpec at cfa.harvard.edu
       
    Mon Mar  4 06:47:21 EST 2024
    
    
  
M.P.E.C. 2024-E29                                 Issued 2024 March 4, 11:45 UT
     The Minor Planet Electronic Circulars contain information on unusual
         minor planets, routine data on comets and natural satellites,
         and occasional editorial announcements.  They are published
    on behalf of Division F of the International Astronomical Union by the
          Minor Planet Center, Smithsonian Astrophysical Observatory,
                          Cambridge, MA 02138, U.S.A.
			  
             Prepared using the Tamkin Foundation Computer Network
                              MPC at CFA.HARVARD.EDU
            URL https://www.minorplanetcenter.net/    ISSN 1523-6714
                                    2024 EO                                     
Observations:
     K24E00O* C2024 03 02.46896511 01 17.617-02 38 57.97         21.41wXEE029F51
     K24E00O  C2024 03 02.48100011 01 20.155-02 39 06.80         21.52wXEE029F51
     K24E00O  C2024 03 02.49303611 01 22.747-02 39 15.99         21.49wXEE029F51
     K24E00O  C2024 03 02.50503611 01 25.324-02 39 24.78         21.60wXEE029F51
     K24E00O  C2024 03 02.59236111 01 45.127-02 40 29.72         21.08GVEE029F52
     K24E00O  C2024 03 02.59300911 01 45.299-02 40 30.25         20.97GVEE029F52
     K24E00O |C2024 03 03.13218011 04 32.750-02 46 08.00         20.5 GVEE029807
     K24E00O |C2024 03 03.13666011 04 34.000-02 46 12.00         20.6 GVEE029807
     K24E00O |C2024 03 03.14099011 04 35.200-02 46 16.00         20.8 GVEE029807
     K24E00O KC2024 03 03.25839111 05 13.211-02 50 21.48         20.67GVEE029I52
     K24E00O KC2024 03 03.25970111 05 13.610-02 50 22.60         20.93GVEE029I52
     K24E00O KC2024 03 03.26100911 05 13.970-02 50 23.68         21.09GVEE029I52
     K24E00O KC2024 03 03.26233211 05 14.348-02 50 25.22         20.96GVEE029I52
     K24E00O KB2024 03 03.97892511 09 44.94 -03 03 24.5          20.2 GXEE029I93
     K24E00O KB2024 03 03.98685111 09 48.07 -03 03 34.6          19.5 GXEE029I93
     K24E00O KB2024 03 03.99450411 09 51.04 -03 03 43.9          20.2 GXEE029I93
     K24E00O |C2024 03 04.12220811 10 51.810-03 03 11.30         20.1 GVEE029807
     K24E00O |C2024 03 04.12441211 10 52.730-03 03 14.30         20.0 GVEE029807
     K24E00O |C2024 03 04.12661011 10 53.630-03 03 17.00         20.2 GVEE029807
     K24E00O |C2024 03 04.12881011 10 54.530-03 03 19.60         20.5 GVEE029807
Observer details:
807 Cerro Tololo Observatory, La Serena.  Observers T. Linder, R. Holmes.
    0.61-m f/6.8 Ritchey-Chretien + CCD.
F51 Pan-STARRS 1, Haleakala.  Observers J. Herman, T. Lowe, P. Minguez, A.
    Schultz, I. Smith.  Measurers K. Chambers, T. de Boer, J. Fairlamb, H.
    Gao, M. Huber, C.-C. Lin, E. Magnier, Y. Ramanjooloo, R. Wainscoat, R.
    Weryk.  1.8-m Ritchey-Chretien + CCD.
F52 Pan-STARRS 2, Haleakala.  Observers J. Herman, T. Lowe, P. Minguez, A.
    Schultz, I. Smith.  Measurers K. Chambers, T. de Boer, J. Fairlamb, H.
    Gao, M. Huber, C.-C. Lin, E. Magnier, Y. Ramanjooloo, R. Wainscoat, R.
    Weryk.  1.8-m Ritchey-Chretien + CCD.
I52 Steward Observatory, Mt. Lemmon Station.  Observers T. Beuden, J. K.
    Hogan.  Measurers T. Beuden, V. F. Carvajal, D. Fay, J. B. Fazekas, D. C.
    Fuls, A. R. Gibbs, A. D. Grauer, H. Groeller, J. K. Hogan, R. A. Kowalski,
    S. M. Larson, G. J. Leonard, D. Rankin, R. L. Seaman, F. C. Shelly, K. W.
    Wierzchos.  1.0-m prime focus + CCD.
I93 St Pardon de Conques.  Observer F. Losse.  0.40-m f/3.7 reflector + CCD.
Orbital elements:
2024 EO                                                  Earth MOID = 0.0022 AU
Epoch 2024 Mar. 31.0 TT = JDT 2460400.5                 Veres                   
M 354.41284              (2000.0)            P               Q                  
n   0.26928632     Peri.   72.66726     -0.48799609     +0.87260095             
a   2.3749795      Node   168.05889     -0.83396482     -0.45913706             
e   0.6991198      Incl.    5.73442     -0.25760919     -0.16661553             
P   3.66           H   26.18          G   0.15           U   8                  
Residuals in seconds of arc
240302 F51  0.2+  0.0     240303 807  0.1+  0.1+    240303 I93  0.1-  0.7+
240302 F51  0.1-  0.1+    240303 807  0.1+  0.0     240303 I93  0.1-  0.7+
240302 F51  0.1+  0.1-    240303 I52  0.1-  0.3-    240304 807  0.2-  0.1+
240302 F51  0.2-  0.0     240303 I52  0.2+  0.1-    240304 807  0.1+  0.2-
240302 F52  0.1-  0.1+    240303 I52  0.0   0.0     240304 807  0.1+  0.1-
240302 F52  0.2+  0.0     240303 I52  0.1-  0.2-    240304 807  0.2+  0.0
240303 807  0.1-  0.0     240303 I93  1.0-  1.3+
Ephemeris:
2024 EO                  a,e,i = 2.37, 0.70, 6                   q = 0.7146
Date    TT    R. A. (2000) Decl.     Delta      r    Elong.  Phase     V
2024 02 03    10 35 02.3 -00 09 03   0.4234  1.3731   151.7    19.9    26.0
...
2024 02 18    10 41 48.1 -01 20 35   0.2296  1.2100   163.5    13.4    24.2
...
2024 02 26    10 48 20.6 -01 56 12   0.1354  1.1228   168.3    10.3    22.7
...
2024 03 03    11 03 47.6 -02 45 13   0.06781 1.0582   170.2     9.2    21.1
2024 03 04    11 09 52.1 -03 01 56   0.05677 1.0476   170.2     9.3    20.7
2024 03 05    11 18 50.9 -03 25 49   0.04581 1.0370   169.7     9.8    20.2
...
2024 03 11    21 01 54.3 -02 38 57   0.02352 0.9744    35.8   143.4    25.3
...
2024 03 19    22 15 35.6 +00 33 50   0.1113  0.8957    24.8   152.2    30.0
...
2024 04 03    22 35 56.0 +01 05 18   0.2904  0.7746    33.5   134.5    29.1
M. P. C. Staff               (C) Copyright 2024 MPC           M.P.E.C. 2024-E29
    
    
More information about the Iaude
mailing list